Location: Mentone
(34.5413°N, 85.5351°W)
Time: 14:38:00
(UTC-05:00)

Amateur Radio Satellites - All Passes

Search period start: 22 August 2014 14:08
Search period end: 23 August 2014 14:08
Location: Mentone, 34.5413°N, 85.5351°W

Satellite Date Start Highest point End Downlink Frequencies (MHz)
Time Altitude Azimuth
Oscar 16 22 Aug 14:17:12 14:21:45 32° 263° (W) 14:26:21 437.025 USB, Beacon 2401.1428
AO-27 22 Aug 14:21:09 14:26:20 72° 258° (WSW) 14:31:31 436.795 MHz FM
SO-50 22 Aug 14:23:36 14:27:49 30° 54° (NE) 14:32:03 436.795 FM
ISS 22 Aug 14:26:17 14:28:55 21° 327° (NNW) 14:31:34 145.800 FM
TMSAT-1 22 Aug 14:54:36 14:59:51 71° 75° (ENE) 15:05:08 436.925 FM
PANSAT 22 Aug 15:05:10 15:07:15 14° 160° (SSE) 15:09:21 not established
MaSat-1 22 Aug 15:09:43 15:14:17 87° 292° (WNW) 15:19:24 437.345 MHz
JAS-1B 22 Aug 15:12:30 15:21:57 50° 261° (W) 15:31:11 435.800 - 435.900 CW/SSB
AO-7 22 Aug 15:12:40 15:20:04 37° 63° (ENE) 15:27:27 29.400 - 29.500 MHz
AO-Echo 22 Aug 15:25:46 15:28:43 15° 267° (W) 15:31:39 ?
RS-15 22 Aug 15:27:00 15:32:30 15° 23° (NNE) 15:38:02 29.354 - 29.394 USB, Beacon 29.352 USB
UOSAT-12 22 Aug 15:35:35 15:37:54 13° 46° (NE) 15:40:12 437.025 FM, 437.400 FM
ITAMSAT 1 22 Aug 15:37:18 15:39:37 13° 268° (W) 15:41:56 435.822 SSB
Gurwin Techsat 1B 22 Aug 15:37:33 15:42:13 31° 263° (W) 15:46:55 435.225 FM
SO-50 22 Aug 16:04:13 16:08:17 28° 248° (WSW) 16:12:23 436.795 FM
Uosat F 22 Aug 16:05:35 16:10:34 68° 75° (ENE) 16:15:33 435.120 FM
TMSAT-1 22 Aug 16:38:43 16:40:13 11° 269° (W) 16:41:42 436.925 FM
PANSAT 22 Aug 16:43:35 16:46:56 29° 172° (S) 16:50:17 not established
Hamsat 22 Aug 16:48:15 16:50:06 13° 66° (ENE) 16:51:57 145.90 MHz
MaSat-1 22 Aug 16:51:19 16:52:15 11° 311° (NW) 16:53:12 437.345 MHz
OPAL 22 Aug 16:58:24 17:03:35 64° 103° (ESE) 17:08:45 ?
JAS-2 22 Aug 16:59:04 17:04:21 26° 69° (ENE) 17:09:12 435.800 - 435.900 CW/SSB, 435.910 FM
AO-7 22 Aug 17:04:44 17:12:36 45° 259° (W) 17:20:30 29.400 - 29.500 MHz
UOSAT-12 22 Aug 17:13:51 17:18:34 72° 243° (WSW) 17:23:10 437.025 FM, 437.400 FM
RS-15 22 Aug 17:38:03 17:48:39 47° 52° (NE) 17:59:35 29.354 - 29.394 USB, Beacon 29.352 USB
Uosat F 22 Aug 17:48:37 17:49:44 11° 268° (W) 17:50:52 435.120 FM
Sapphire 22 Aug 17:55:28 18:00:01 28° 108° (ESE) 18:04:35 437.095 MHz 1200 baud AX-25 AFSK
Hamsat 22 Aug 18:21:30 18:25:35 47° 261° (W) 18:29:45 145.90 MHz
PANSAT 22 Aug 18:23:19 18:26:45 31° 185° (S) 18:30:10 not established
PCSat 22 Aug 18:25:01 18:30:19 60° 112° (ESE) 18:35:39 145.825 MHz
STRAND 1 22 Aug 18:28:36 18:32:04 18° 94° (E) 18:35:30 ?
OPAL 22 Aug 18:39:10 18:41:53 15° 298° (WNW) 18:44:37 ?
JAS-2 22 Aug 18:42:38 18:49:11 46° 260° (W) 18:55:02 435.800 - 435.900 CW/SSB, 435.910 FM
HO-68 22 Aug 19:05:37 19:07:40 11° 55° (NE) 19:09:43 435.675 MHz FM
SO-67 22 Aug 19:06:45 19:10:12 78° 78° (ENE) 19:13:40 435.3500 MHz FM
ISS 22 Aug 19:21:39 19:23:13 13° 27° (NNE) 19:24:48 145.800 FM
Sapphire 22 Aug 19:38:27 19:43:17 33° 303° (WNW) 19:48:10 437.095 MHz 1200 baud AX-25 AFSK
RS-15 22 Aug 19:50:32 20:00:54 46° 251° (WSW) 20:11:43 29.354 - 29.394 USB, Beacon 29.352 USB
PANSAT 22 Aug 20:03:49 20:06:28 18° 197° (SSW) 20:09:06 not established
STRAND 1 22 Aug 20:06:36 20:11:23 43° 288° (WNW) 20:16:10 ?
PCSat 22 Aug 20:10:33 20:14:08 18° 309° (NW) 20:17:44 145.825 MHz
HO-68 22 Aug 20:47:01 20:54:07 73° 72° (ENE) 21:01:15 435.675 MHz FM
Oscar 10/S400 22 Aug 20:56:01 21:17:02 72° 169° (S) 06:25:49 145.825 - 145.975 CW/USB, Beacon 145.810 USB
ISS 22 Aug 20:57:00 21:00:21 84° 224° (SW) 21:03:40 145.800 FM
UKube-1 22 Aug 21:03:28 21:07:40 49° 74° (ENE) 21:11:52 145.840 MHz, 145.915 MHz
Oscar 11 22 Aug 21:19:10 21:23:13 41° 73° (ENE) 21:27:18 145.825 FM, Beacon 2401.500 USB
FUNcube-1 22 Aug 21:22:19 21:24:41 15° 68° (ENE) 21:27:04 145.950 - 145.970 MHz USB
AO-40 22 Aug 22:12:50 01:20:22 41° 192° (SSW) 06:56:50 Beacon 2401.320
HO-68 22 Aug 22:37:57 22:42:20 17° 267° (W) 22:46:44 435.675 MHz FM
UKube-1 22 Aug 22:42:38 22:44:06 12° 267° (W) 22:45:34 145.840 MHz, 145.915 MHz
FUNcube-1 22 Aug 22:56:58 23:00:46 35° 262° (W) 23:04:36 145.950 - 145.970 MHz USB
Oscar 11 22 Aug 22:57:23 22:59:33 14° 267° (W) 23:01:45 145.825 FM, Beacon 2401.500 USB
MaSat-1 22 Aug 23:34:10 23:35:06 11° 49° (NE) 23:36:00 437.345 MHz
KITSAT 1 22 Aug 23:36:04 23:41:56 22° 103° (ESE) 23:47:47 435.175 FM
Saudisat 1A 23 Aug 00:36:42 00:41:06 89° 299° (WNW) 00:45:32 436.775 MHz
Oscar 16 23 Aug 00:55:41 00:57:13 11° 91° (E) 00:58:44 437.025 USB, Beacon 2401.1428
MaSat-1 23 Aug 01:08:16 01:12:58 78° 249° (WSW) 01:17:01 437.345 MHz
KITSAT 1 23 Aug 01:28:32 01:36:34 68° 300° (WNW) 01:44:39 435.175 FM
AO-Echo 23 Aug 01:56:35 02:00:03 20° 95° (E) 02:03:29 ?
Oscar 19 23 Aug 01:58:31 02:03:36 52° 100° (E) 02:08:39 437.125 CW, 437.150 USB
ITAMSAT 1 23 Aug 02:11:38 02:16:05 29° 97° (E) 02:20:31 435.822 SSB
Gurwin Techsat 1B 23 Aug 02:18:56 02:21:38 14° 92° (E) 02:24:19 435.225 FM
Uribyol 2 23 Aug 02:23:32 02:28:25 41° 99° (E) 02:33:17 436.500 FM
Oscar 16 23 Aug 02:31:48 02:36:59 69° 285° (WNW) 02:42:08 437.025 USB, Beacon 2401.1428
AO-27 23 Aug 02:37:51 02:42:56 55° 101° (E) 02:47:59 436.795 MHz FM
Sapphire 23 Aug 02:48:08 02:50:31 13° 47° (NE) 02:52:53 437.095 MHz 1200 baud AX-25 AFSK
JAS-1B 23 Aug 03:04:39 03:11:50 73° 102° (ESE) 03:17:53 435.800 - 435.900 CW/SSB
TMSAT-1 23 Aug 03:14:20 03:19:14 37° 98° (E) 03:24:06 436.925 FM
PCSat 23 Aug 03:17:05 03:21:27 24° 54° (NE) 03:25:46 145.825 MHz
AO-7 23 Aug 03:21:34 03:24:12 12° 91° (E) 03:26:49 29.400 - 29.500 MHz
KITSAT 1 23 Aug 03:29:14 03:33:34 15° 321° (NW) 03:37:55 435.175 FM
AO-Echo 23 Aug 03:34:41 03:38:51 32° 289° (WNW) 03:43:00 ?
Oscar 19 23 Aug 03:39:18 03:42:28 17° 295° (WNW) 03:45:38 437.125 CW, 437.150 USB
ITAMSAT 1 23 Aug 03:51:05 03:55:28 28° 291° (WNW) 03:59:50 435.822 SSB
Gurwin Techsat 1B 23 Aug 03:56:42 04:01:55 59° 286° (WNW) 04:07:06 435.225 FM
Uribyol 2 23 Aug 04:03:49 04:07:34 21° 293° (WNW) 04:11:19 436.500 FM
OPAL 23 Aug 04:09:59 04:14:57 76° 73° (ENE) 04:20:01 ?
Uosat F 23 Aug 04:17:25 04:21:40 27° 97° (E) 04:25:53 435.120 FM
AO-27 23 Aug 04:18:57 04:21:57 16° 295° (WNW) 04:24:56 436.795 MHz FM
Sapphire 23 Aug 04:29:12 04:34:39 87° 245° (WSW) 04:40:04 437.095 MHz 1200 baud AX-25 AFSK
SO-50 23 Aug 04:36:21 04:39:31 19° 110° (ESE) 04:42:43 436.795 FM
TMSAT-1 23 Aug 04:54:49 04:58:53 23° 293° (WNW) 05:02:57 436.925 FM
JAS-1B 23 Aug 04:57:12 05:01:20 17° 303° (WNW) 05:05:09 435.800 - 435.900 CW/SSB
PCSat 23 Aug 04:59:55 05:04:59 41° 250° (WSW) 05:10:01 145.825 MHz
AO-7 23 Aug 05:09:40 05:18:00 79° 106° (ESE) 05:26:16 29.400 - 29.500 MHz
STRAND 1 23 Aug 05:41:29 05:45:03 20° 66° (ENE) 05:48:37 ?
JAS-2 23 Aug 05:56:01 06:00:10 24° 96° (E) 06:04:27 435.800 - 435.900 CW/SSB, 435.910 FM
Uosat F 23 Aug 05:56:08 06:00:20 28° 291° (WNW) 06:04:32 435.120 FM
Hamsat 23 Aug 06:10:46 06:14:51 38° 98° (E) 06:18:53 145.90 MHz
SO-50 23 Aug 06:15:41 06:19:46 35° 305° (NW) 06:23:58 436.795 FM
AO-7 23 Aug 07:04:11 07:09:50 21° 303° (WNW) 07:15:30 29.400 - 29.500 MHz
STRAND 1 23 Aug 07:19:04 07:23:53 42° 261° (W) 07:28:44 ?
UOSAT-12 23 Aug 07:21:24 07:25:58 80° 118° (ESE) 07:30:39 437.025 FM, 437.400 FM
JAS-2 23 Aug 07:40:45 07:45:18 32° 290° (WNW) 07:50:01 435.800 - 435.900 CW/SSB, 435.910 FM
Hamsat 23 Aug 07:47:52 07:50:27 16° 292° (WNW) 07:53:01 145.90 MHz
RS-15 23 Aug 07:57:43 08:07:47 41° 108° (ESE) 08:17:37 29.354 - 29.394 USB, Beacon 29.352 USB
SO-67 23 Aug 08:06:57 08:10:19 48° 284° (WNW) 08:13:39 435.3500 MHz FM
HO-68 23 Aug 08:21:02 08:24:54 15° 92° (E) 08:28:44 435.675 MHz FM
UKube-1 23 Aug 08:57:51 08:59:00 11° 93° (E) 09:00:09 145.840 MHz, 145.915 MHz
UOSAT-12 23 Aug 09:04:53 09:06:42 12° 315° (NW) 09:08:33 437.025 FM, 437.400 FM
Saudisat 1A 23 Aug 09:07:11 09:10:56 26° 53° (NE) 09:14:39 436.775 MHz
KITSAT 1 23 Aug 09:26:05 09:33:16 34° 52° (NE) 09:40:24 435.175 FM
HO-68 23 Aug 10:06:02 10:13:12 80° 287° (WNW) 10:20:20 435.675 MHz FM
RS-15 23 Aug 10:09:05 10:19:47 51° 307° (NW) 10:30:21 29.354 - 29.394 USB, Beacon 29.352 USB
UKube-1 23 Aug 10:31:15 10:35:28 51° 286° (WNW) 10:39:39 145.840 MHz, 145.915 MHz
Oscar 11 23 Aug 10:46:06 10:50:24 57° 285° (WNW) 10:54:40 145.825 FM, Beacon 2401.500 USB
Saudisat 1A 23 Aug 10:46:45 10:50:25 26° 248° (WSW) 10:54:03 436.775 MHz
FUNcube-1 23 Aug 10:48:49 10:53:12 54° 100° (E) 10:57:39 145.950 - 145.970 MHz USB
KITSAT 1 23 Aug 11:21:09 11:28:51 51° 250° (WSW) 11:36:31 435.175 FM
HO-68 23 Aug 11:56:53 11:59:45 13° 304° (NW) 12:02:38 435.675 MHz FM
JAS-1B 23 Aug 12:00:51 12:02:12 10° 52° (NE) 12:03:32 435.800 - 435.900 CW/SSB
ISS 23 Aug 12:01:29 12:03:45 17° 128° (SE) 12:06:00 145.800 FM
Oscar 16 23 Aug 12:09:28 12:11:36 13° 63° (ENE) 12:13:44 437.025 USB, Beacon 2401.1428
FUNcube-1 23 Aug 12:27:17 12:29:07 12° 294° (WNW) 12:30:58 145.950 - 145.970 MHz USB
RS-15 23 Aug 12:29:48 12:35:37 15° 336° (NNW) 12:41:27 29.354 - 29.394 USB, Beacon 29.352 USB
AO-Echo 23 Aug 13:06:09 13:09:57 21° 68° (ENE) 13:13:41 ?
Oscar 19 23 Aug 13:11:55 13:16:53 53° 73° (ENE) 13:21:54 437.125 CW, 437.150 USB
ITAMSAT 1 23 Aug 13:26:22 13:30:52 31° 70° (ENE) 13:35:23 435.822 SSB
Gurwin Techsat 1B 23 Aug 13:36:42 13:40:00 17° 65° (ENE) 13:43:19 435.225 FM
ISS 23 Aug 13:37:10 13:40:15 35° 322° (NW) 13:43:21 145.800 FM
Uribyol 2 23 Aug 13:38:03 13:42:54 43° 72° (ENE) 13:47:46 436.500 FM
JAS-1B 23 Aug 13:41:17 13:50:45 53° 69° (ENE) 13:59:46 435.800 - 435.900 CW/SSB
Oscar 16 23 Aug 13:45:13 13:50:18 68° 258° (WSW) 13:55:28 437.025 USB, Beacon 2401.1428
AO-27 23 Aug 13:52:31 13:57:36 59° 74° (ENE) 14:02:41 436.795 MHz FM
